Weather History for 78762 - October, 2013

Change the Weather History Date:

Wednesday, October 9, 2013

  Actual Average Record
Temperature  
Mean Temperature 76 °F -  
Max Temperature 87 °F 78 °F - ()
Min Temperature 66 °F 64 °F - ()
Cooling Degree Days 12    
Growing Degree Days 26 (Base 50)    
Moisture  
Dew Point 63 °F    
Average Humidity 68    
Maximum Humidity 94    
Minimum Humidity 32    
Precipitation  
Precipitation 0.02 in 0.36 in - ()
Sea Level Pressure  
Sea Level Pressure 29.95 in    
Wind  
Wind Speed 7 mph ()    
Max Wind Speed 20 mph    
Max Gust Speed -    
Visibility 8.2 miles    
Events Rain    
T = Trace of Precipitation, MM = Missing Value Source: Averaged Metar Reports

Daily Weather History Graph

Daily Weather History Graph

Search for Another Location

Airport or City:

Trip Planner

Search our weather history database for the weather conditions in past years. The results will help you decide how hot, cold, wet, or windy it might be!

Date:

Astronomy

Oct. 09, 2013 Rise Set
Actual Time 5:25 AM CST 5:22 PM CST
Civil Twilight 5:04 AM CST 5:43 PM CST
Nautical Twilight 4:39 AM CST 6:08 PM CST
Astronomical Twilight 4:15 AM CST 6:32 PM CST
Moon 9:38 AM CST (10/9) 9:36 PM CST (10/9)
Length of Visible Light 12h 39m
Length of Day
11h 57m
Waxing Crescent, 26% of the Moon is Illuminated
Oct 9
Waxing Crescent
Oct 11
First Quarter
Oct 18
Full
Oct 26
Last Quarter
Nov 3
New

Hourly Weather History & Observations

Time (CST) Temp. Heat Index Dew Point Humidity Pressure Visibility Wind Dir Wind Speed Gust Speed Precip Events Conditions
12:00 AM 68 °F - 65 °F 87% 29.83 in 12 mi ENE 4.6 mph - -   Clear
12:00 AM 68.0 °F - 64.4 °F 88% 30.01 in - ENE 4.6 mph - N/A   Clear
1:00 AM 68.0 °F - 64.4 °F 88% 30.00 in - ENE 4.6 mph - N/A   Clear
2:00 AM 68.0 °F - 62.6 °F 83% 29.99 in - NE 6.9 mph - N/A   Clear
3:00 AM 69 °F - 62 °F 74% 29.83 in 12 mi East 4.6 mph - -   Clear
3:00 AM 69.8 °F - 62.6 °F 78% 29.97 in - East 4.6 mph - N/A   Clear
4:00 AM 69.8 °F - 62.6 °F 78% 29.98 in - ESE 5.8 mph - N/A   Clear
5:00 AM 69.8 °F - 64.4 °F 83% 29.98 in - SE 6.9 mph - N/A   Clear
6:00 AM 71 °F - 61 °F 63% 29.88 in 12 mi ESE 8.1 mph - -   Partly Cloudy
6:00 AM 71.6 °F - 60.8 °F 69% 30.00 in - ESE 8.1 mph - N/A   Clear
7:00 AM 73.4 °F - 60.8 °F 65% 30.01 in - East 13.8 mph - N/A   Clear
8:00 AM 78.8 °F - 62.6 °F 57% 30.02 in - NNE 8.1 mph - N/A   Clear
9:00 AM 81 °F - 60 °F 39% 29.85 in 12 mi East 19.6 mph - -   Scattered Clouds
9:00 AM 80.6 °F 81.5 °F 60.8 °F 51% 30.02 in 6.2 mi East 19.6 mph - N/A   Partly Cloudy
10:00 AM 80.6 °F 81.5 °F 60.8 °F 51% 30.02 in 6.2 mi ENE 19.6 mph - N/A   Partly Cloudy
11:00 AM 84.2 °F 84.4 °F 60.8 °F 45% 30.00 in 6.2 mi East 12.7 mph - N/A   Scattered Clouds
12:00 PM 85 °F - 60 °F 32% 29.79 in 12 mi East 18.4 mph - -   Scattered Clouds
12:00 PM 84.2 °F 83.8 °F 59.0 °F 42% 29.98 in 6.2 mi East 18.4 mph - N/A   Scattered Clouds
1:00 PM 84.2 °F 83.8 °F 59.0 °F 42% 29.95 in 6.2 mi East 16.1 mph - N/A   Scattered Clouds
2:00 PM 86.0 °F 85.4 °F 59.0 °F 40% 29.93 in 6.2 mi ENE 11.5 mph - N/A   Scattered Clouds
3:00 PM 78 °F - 62 °F 49% 29.76 in 6 mi ENE 10.4 mph - - Rain Light Rain
3:00 PM 78.8 °F - 62.6 °F 57% 29.94 in 6.2 mi ENE 10.4 mph - N/A Rain Rain
4:00 PM 77.0 °F - 64.4 °F 65% 29.95 in 6.2 mi SSE 5.8 mph - N/A   Scattered Clouds
5:00 PM 75.2 °F - 64.4 °F 69% 29.97 in 6.2 mi East 6.9 mph - N/A   Scattered Clouds
6:00 PM 74 °F - 64 °F 63% 29.81 in 12 mi ENE 3.5 mph - -   Partly Cloudy
6:00 PM 73.4 °F - 64.4 °F 73% 29.99 in 6.2 mi ENE 3.5 mph - N/A   Mostly Cloudy
6:16 PM 71.6 °F - 68.0 °F 88% 30.00 in 6.2 mi SW 4.6 mph - N/A   Mostly Cloudy
7:00 PM 71.6 °F - 68.0 °F 88% 30.02 in 6.2 mi WSW 4.6 mph - N/A   Mostly Cloudy
8:00 PM 71.6 °F - 68.0 °F 88% 30.03 in - North 3.5 mph - N/A   Clear
9:00 PM 70 °F - 67 °F 88% 29.86 in 12 mi Calm Calm - -   Mostly Cloudy
9:00 PM 69.8 °F - 68.0 °F 94% 30.05 in - Calm Calm - N/A   Clear
10:00 PM 69.8 °F - 66.2 °F 88% 30.04 in - NNE 3.5 mph - N/A   Clear
11:00 PM 68.0 °F - 64.4 °F 88% 30.03 in - NE 3.5 mph - N/A   Clear